Weather History for KBAD - February, 2013

Change the Weather History Date:

Sunday, February 10, 2013

  Actual Average Record
Temperature  
Mean Temperature 64 °F -  
Max Temperature 70 °F 57 °F 77 °F (1999)
Min Temperature 56 °F 39 °F 22 °F (2011)
Degree Days  
Heating Degree Days 2    
Growing Degree Days 14 (Base 50)    
Moisture  
Dew Point 52 °F    
Average Humidity 76    
Maximum Humidity 100    
Minimum Humidity 29    
Precipitation  
Precipitation 1.59 in - - ()
Sea Level Pressure  
Sea Level Pressure 29.86 in    
Wind  
Wind Speed 10 mph (West)    
Max Wind Speed 17 mph    
Max Gust Speed 20 mph    
Visibility 8 miles    
Events Rain , Thunderstorm    
Averages and records for this station are not official NWS values.
T = Trace of Precipitation, MM = Missing Value Source: NWS Daily Summary

Daily Weather History Graph

Daily Weather History Graph

Search for Another Location

Airport or City:

Trip Planner

Search our weather history database for the weather conditions in past years. The results will help you decide how hot, cold, wet, or windy it might be!

Date:

Astronomy

Feb. 10, 2013 Rise Set
Actual Time 7:01 AM CST 5:56 PM CST
Civil Twilight 6:36 AM CST 6:21 PM CST
Nautical Twilight 6:07 AM CST 6:50 PM CST
Astronomical Twilight 5:38 AM CST 7:19 PM CST
Moon 6:56 AM CST (2/10) 6:41 PM CST (2/10)
Length of Visible Light 11h 45m
Length of Day
10h 54m
New Moon, 0% of the Moon is Illuminated
Feb 10
New Moon
Feb 17
First Quarter
Feb 25
Full
Mar 4
Last Quarter
Mar 11
New

Hourly Weather History & Observations

Time (CST) Temp. Dew Point Humidity Pressure Visibility Wind Dir Wind Speed Gust Speed Precip Events Conditions
4:21 AM 62.6 °F 60.8 °F 94% 29.78 in 10.0 mi SSE 17.3 mph - N/A   Overcast
4:55 AM 62.6 °F 60.8 °F 94% 29.82 in 10.0 mi South 12.7 mph - N/A   Overcast
5:37 AM 62.6 °F 62.6 °F 100% 29.82 in 8.0 mi SE 9.2 mph - N/A Rain Light Rain
5:55 AM 62.6 °F 62.6 °F 100% 29.80 in 6.0 mi SE 11.5 mph - N/A   Light Drizzle
6:11 AM 62.6 °F 62.6 °F 100% 29.78 in 6.0 mi SE 13.8 mph - N/A Rain , Thunderstorm Light Rain
6:18 AM 62.6 °F 62.6 °F 100% 29.79 in 5.0 mi SSE 13.8 mph - N/A Rain , Thunderstorm Light Thunderstorms and Rain
6:55 AM 62.6 °F 62.6 °F 100% 29.79 in 4.0 mi East 5.8 mph - 0.10 in Rain , Thunderstorm Light Thunderstorms and Rain
7:20 AM 60.8 °F 60.8 °F 100% 29.84 in 2.5 mi NW 10.4 mph - N/A Rain , Thunderstorm Heavy Thunderstorms and Rain
7:55 AM 60.8 °F 60.8 °F 100% 29.83 in 1.0 mi West 10.4 mph - 0.83 in Rain , Thunderstorm Light Thunderstorms and Rain
8:53 AM 60.8 °F 60.8 °F 100% 29.85 in 6.0 mi SW 12.7 mph 19.6 mph N/A Rain Rain
8:55 AM 60.8 °F 60.8 °F 100% 29.84 in 6.0 mi South 5.8 mph - 0.55 in Rain , Thunderstorm Light Rain
9:40 AM 60.8 °F 60.8 °F 100% 29.86 in 6.0 mi SW 10.4 mph - N/A Rain Light Rain
9:55 AM 60.8 °F 60.8 °F 100% 29.86 in 10.0 mi SSW 8.1 mph - 0.10 in   Overcast
10:28 AM 60.8 °F 60.8 °F 100% 29.82 in 10.0 mi West 2.3 mph - N/A   Overcast
10:39 AM 60.8 °F 60.8 °F 100% 29.83 in 10.0 mi West 4.6 mph - N/A   Overcast
10:58 AM 61.0 °F 61.0 °F 100% 29.85 in 10.0 mi West 9.2 mph - 0.01 in   Overcast
11:28 AM 60.8 °F 60.8 °F 100% 29.84 in 10.0 mi WNW 10.4 mph - N/A   Partly Cloudy
11:58 AM 60.6 °F 60.6 °F 100% 29.82 in 10.0 mi NW 10.4 mph - N/A   Mostly Cloudy
12:58 PM 66.6 °F 50.2 °F 56% 29.84 in 10.0 mi West 10.4 mph - N/A   Overcast
1:58 PM 68.2 °F 40.8 °F 37% 29.83 in 10.0 mi West 6.9 mph - N/A   Overcast
2:58 PM 70.0 °F 36.3 °F 29% 29.84 in 10.0 mi WNW 8.1 mph - N/A   Scattered Clouds
3:58 PM 69.4 °F 39.6 °F 34% 29.85 in 10.0 mi WNW 8.1 mph - N/A   Scattered Clouds
4:58 PM 68.5 °F 37.8 °F 32% 29.86 in 10.0 mi West 4.6 mph - N/A   Overcast
5:58 PM 65.5 °F 37.2 °F 35% 29.88 in 10.0 mi WNW 3.5 mph - N/A   Scattered Clouds
6:58 PM 63.9 °F 36.5 °F 36% 29.92 in 10.0 mi WNW 5.8 mph - N/A   Mostly Cloudy
7:58 PM 61.9 °F 37.0 °F 40% 29.94 in 10.0 mi Calm Calm - N/A   Partly Cloudy
8:58 PM 61.9 °F 37.8 °F 41% 29.98 in 10.0 mi West 3.5 mph - N/A   Mostly Cloudy
9:58 PM 60.8 °F 38.5 °F 44% 30.00 in 10.0 mi WNW 6.9 mph - N/A   Mostly Cloudy
10:58 PM 57.2 °F 41.7 °F 56% 30.01 in 10.0 mi NNW 5.8 mph - N/A   Partly Cloudy
11:28 PM 57.2 °F 41.0 °F 55% 30.00 in 10.0 mi North 5.8 mph - N/A   Mostly Cloudy
11:58 PM 56.7 °F 43.5 °F 61% 30.01 in 10.0 mi NNW 5.8 mph - N/A   Mostly Cloudy